Location: D�derode
(51.8092°N, 10.1065°E)
Time: 20:08:49
(UTC+00:00)

CZ-2D R/B - Pass Details

Date: 01 December 2020
Orbit: 520 x 538 km, 97.4° (Epoch: 25 January)

Event Time Altitude Azimuth Distance (km) Brightness Sun altitude
Rises 17:50:46 0° 178° (S) 2,651 6.9 -23.5°
Reaches altitude 10° 17:52:54 10° 184° (S) 1,770 6.0 -23.8°
Maximum altitude 17:56:37 50° 260° (W) 687 4.1 -24.4°
Drops below altitude 10° 18:00:24 10° 337° (NNW) 1,796 6.1 -24.9°
Sets 18:02:35 0° 343° (NNW) 2,695 7.0 -25.3°
